Location: Unspecified
(42.9300°N, 71.1866°W)
Time: 02:18:55
(UTC-04:00)

CZ-3 Stage 3 - Visible Passes

Search period start: 25 October 2014 00:00
Search period end: 03 November 2014 23:00
Orbit: 416 x 34822 km, 30.9° (Epoch: 24 October)

Date Brightness Start Highest point End Pass type
(mag) Time Alt. Az. Time Alt. Az. Time Alt. Az.
25 Oct 7.3 00:00:00 28° S 05:05:18 60° S 05:23:30 10° E visible
25 Oct 8.2 20:34:07 10° SE 00:48:15 39° SE 01:42:52 10° E visible
27 Oct 5.6 08:04:38 10° W 08:47:19 40° SW 08:53:29 10° SE visible
27 Oct 7.2 21:09:59 10° SSE 05:02:05 61° S 05:19:51 10° E visible
28 Oct 8.1 20:18:30 10° SE 00:44:47 41° SE 01:39:36 10° E visible
30 Oct 5.6 08:03:19 10° W 08:43:26 39° SW 08:49:34 10° SSE visible
30 Oct 7.1 21:01:26 10° S 04:58:42 62° S 05:16:04 10° E visible
31 Oct 8.1 20:03:00 10° SE 00:41:11 43° SE 01:36:10 10° E visible
02 Nov 5.6 07:01:39 10° W 07:39:25 37° SW 07:45:32 10° SSE visible
02 Nov 7.1 19:53:11 10° S 03:55:11 63° S 04:12:09 10° E visible
03 Nov 9.6 18:47:38 10° SE 23:00:00 42° SE 23:00:00 42° SE visible
